Location: Newark
(34.1333°N, 7.9667°W)
Time: 02:32:30
(UTC+00:00)

Transit 2A Rocket - All Passes

Search period start: 04 December 2021 00:00
Search period end: 14 December 2021 00:00
Orbit: 584 x 918 km, 66.7° (Epoch: 03 December)

Date Brightness Start Highest point End Pass type
(mag) Time Alt. Az. Time Alt. Az. Time Alt. Az.
04 Dec - 06:20:35 10° SE 06:23:53 16° ESE 06:27:19 10° ENE visible
04 Dec - 08:00:22 10° SW 08:05:49 60° WNW 08:11:43 10° NNE daylight
04 Dec - 16:48:07 10° NNW 16:53:57 51° ENE 16:59:23 10° SE daylight
04 Dec - 18:31:55 10° WNW 18:36:04 20° WSW 18:40:00 10° SSW visible
05 Dec - 07:17:39 10° SSW 07:23:06 78° ESE 07:29:04 10° NNE daylight
05 Dec - 09:02:59 10° W 09:06:30 16° NW 09:10:08 10° N daylight
05 Dec - 16:05:49 10° N 16:11:04 30° NE 16:16:00 10° ESE daylight
05 Dec - 17:48:21 10° NW 17:53:42 36° WSW 17:58:41 10° S visible
06 Dec - 06:35:25 10° S 06:40:34 43° ESE 06:46:09 10° NE visible
06 Dec - 08:18:42 10° WSW 08:23:23 26° NW 08:28:21 10° N daylight
06 Dec - 15:23:52 10° N 15:28:01 19° NE 15:32:00 10° E daylight
06 Dec - 17:05:19 10° NNW 17:11:13 65° WSW 17:16:38 10° SSE daylight
07 Dec - 05:53:50 10° SSE 05:58:11 24° ESE 06:02:47 10° NE visible
07 Dec - 07:35:09 10° SW 07:40:26 43° WNW 07:46:08 10° NNE daylight
07 Dec - 14:42:47 10° NNE 14:44:48 12° NE 14:46:47 10° ENE daylight
07 Dec - 16:22:35 10° NNW 16:28:34 72° ENE 16:34:04 10° SSE daylight
07 Dec - 18:07:45 10° WNW 18:10:20 13° W 18:12:51 10° SW visible
08 Dec - 05:13:28 10° SE 05:15:53 13° E 05:18:22 10° ENE visible
08 Dec - 06:52:07 10° SSW 06:57:39 74° WNW 07:03:39 10° NNE visible
08 Dec - 08:39:13 10° WNW 08:41:23 12° NW 08:43:35 10° NNW daylight
08 Dec - 15:40:07 10° NNW 15:45:46 42° ENE 15:51:01 10° SE daylight
08 Dec - 17:23:24 10° NW 17:28:03 25° WSW 17:32:25 10° SSW daylight
09 Dec - 06:09:34 10° SSW 06:15:00 64° ESE 06:20:55 10° NNE visible
09 Dec - 07:54:07 10° W 07:58:11 19° NW 08:02:25 10° N daylight
09 Dec - 14:57:55 10° N 15:02:48 25° NE 15:07:26 10° ESE daylight
09 Dec - 16:40:04 10° NW 16:45:38 44° WSW 16:50:48 10° S daylight
10 Dec - 05:27:33 10° S 05:32:31 35° ESE 05:37:51 10° NE visible
10 Dec - 07:10:09 10° WSW 07:15:08 31° NW 07:20:26 10° N daylight
10 Dec - 14:16:09 10° N 14:19:42 16° NE 14:23:06 10° E daylight
10 Dec - 15:57:09 10° NNW 16:03:06 80° WSW 16:08:33 10° SSE daylight
11 Dec - 04:46:16 10° SSE 04:50:10 20° ESE 04:54:15 10° ENE visible
11 Dec - 06:26:47 10° SW 06:32:14 52° WNW 06:38:06 10° NNE visible
11 Dec - 15:14:31 10° NNW 15:20:24 59° ENE 15:25:48 10° SE daylight
11 Dec - 16:58:50 10° WNW 17:02:20 17° WSW 17:05:41 10° SW daylight
12 Dec - 05:43:56 10° SSW 05:49:30 89° WNW 05:55:33 10° NNE visible
12 Dec - 07:29:56 10° WNW 07:33:02 14° NW 07:36:13 10° NNW daylight
12 Dec - 14:32:08 10° N 14:37:32 35° NE 14:42:34 10° ESE daylight
12 Dec - 16:15:00 10° NW 16:20:01 30° WSW 16:24:41 10° SSW daylight
13 Dec - 05:01:33 10° S 05:06:55 52° ESE 05:12:42 10° NE visible
13 Dec - 06:45:23 10° WSW 06:49:53 23° NW 06:54:36 10° N visible
13 Dec - 13:50:05 10° N 13:54:31 21° NE 13:58:45 10° E daylight
13 Dec - 15:31:50 10° NW 15:37:33 55° WSW 15:42:49 10° S daylight
